Shreveport Downtown, LA

4:36 PM CST on November 19, 2017 (GMT -0600)
Shreveport Downtown

Weather History for KDTN - January, 2014

Change the Weather History Date:

Tuesday, January 14, 2014

  Actual Average (KBAD) Record (KBAD)
Temperature  
Mean Temperature 48 °F -  
Max Temperature 66 °F 54 °F 72 °F (2017)
Min Temperature 30 °F 35 °F 21 °F (2009)
Degree Days  
Heating Degree Days 17    
Moisture  
Dew Point 28 °F    
Average Humidity 48    
Maximum Humidity 89    
Minimum Humidity 18    
Precipitation  
Precipitation 0.00 in - - ()
Sea Level Pressure  
Sea Level Pressure 30.08 in    
Wind  
Wind Speed 4 mph (WNW)    
Max Wind Speed 14 mph    
Max Gust Speed 21 mph    
Visibility 10 miles    
Events      
Averages and records for this station are not official NWS values.
T = Trace of Precipitation, MM = Missing Value Source: NWS Daily Summary

Daily Weather History Graph

Daily Weather History Graph

Search for Another Location

Airport or City:

Trip Planner

Search our weather history database for the weather conditions in past years. The results will help you decide how hot, cold, wet, or windy it might be!

Date:

Astronomy

Jan. 14, 2014 Rise Set
Actual Time 7:17 AM CST 5:31 PM CST
Civil Twilight 6:50 AM CST 5:58 PM CST
Nautical Twilight 6:20 AM CST 6:28 PM CST
Astronomical Twilight 5:50 AM CST 6:57 PM CST
Moon 4:35 PM CST (1/14) 5:53 AM CST (1/14)
Length of Visible Light 11h 07m
Length of Day
10h 14m
Waxing Gibbous, 98% of the Moon is Illuminated
Jan 14
Waxing Gibbous
Jan 15
Full
Jan 23
Last Quarter
Jan 30
New
Feb 6
First Quarter

Hourly Weather History & Observations

Time (CST) Temp. Windchill Dew Point Humidity Pressure Visibility Wind Dir Wind Speed Gust Speed Precip Events Conditions
12:53 AM 44.1 °F - 28.9 °F 55% 30.05 in 10.0 mi Calm Calm - N/A   Clear
1:53 AM 39.0 °F - 32.0 °F 76% 30.04 in 10.0 mi Calm Calm - N/A   Clear
2:53 AM 37.9 °F - 30.0 °F 73% 30.04 in 10.0 mi Calm Calm - N/A   Clear
3:53 AM 37.9 °F - 33.1 °F 83% 30.05 in 10.0 mi Calm Calm - N/A   Clear
4:53 AM 30.9 °F - 28.0 °F 89% 30.04 in 10.0 mi Calm Calm - N/A   Clear
5:53 AM 34.0 °F - 28.9 °F 82% 30.04 in 10.0 mi Calm Calm - N/A   Clear
6:53 AM 36.0 °F - 28.9 °F 76% 30.05 in 10.0 mi Calm Calm - N/A   Clear
7:53 AM 32.0 °F - 28.0 °F 85% 30.06 in 10.0 mi Calm Calm - N/A   Clear
8:53 AM 46.0 °F 43.9 °F 30.0 °F 54% 30.07 in 10.0 mi SW 4.6 mph - N/A   Clear
9:53 AM 53.1 °F - 27.0 °F 37% 30.09 in 10.0 mi SW 6.9 mph - N/A   Clear
10:53 AM 60.1 °F - 26.1 °F 27% 30.08 in 10.0 mi West 9.2 mph - N/A   Clear
11:53 AM 64.0 °F - 23.0 °F 21% 30.06 in 10.0 mi WSW 11.5 mph - N/A   Clear
12:53 PM 64.9 °F - 23.0 °F 20% 30.02 in 10.0 mi WSW 12.7 mph - N/A   Clear
1:53 PM 66.9 °F - 23.0 °F 19% 30.01 in 10.0 mi SW 10.4 mph - N/A   Clear
2:53 PM 66.9 °F - 21.9 °F 18% 30.00 in 10.0 mi West 10.4 mph - N/A   Clear
3:53 PM 66.9 °F - 21.9 °F 18% 30.01 in 10.0 mi WSW 5.8 mph - N/A   Clear
4:53 PM 64.9 °F - 19.9 °F 18% 30.02 in 10.0 mi West 6.9 mph - N/A   Clear
5:53 PM 59.0 °F - 28.9 °F 32% 30.07 in 10.0 mi North 9.2 mph 18.4 mph N/A   Clear
6:53 PM 55.9 °F - 30.0 °F 37% 30.11 in 10.0 mi North 4.6 mph - N/A   Clear
7:53 PM 55.0 °F - 30.0 °F 38% 30.14 in 10.0 mi NNW 3.5 mph - N/A   Scattered Clouds
8:53 PM 54.0 °F - 35.1 °F 49% 30.17 in 10.0 mi NNW 11.5 mph 17.3 mph N/A   Partly Cloudy
9:53 PM 53.1 °F - 34.0 °F 48% 30.20 in 10.0 mi NNW 13.8 mph 20.7 mph N/A   Overcast
10:53 PM 51.1 °F - 32.0 °F 48% 30.21 in 10.0 mi NNW 6.9 mph - 0.00 in   Mostly Cloudy
11:53 PM 48.0 °F - 32.0 °F 54% 30.22 in 10.0 mi NNW 9.2 mph - N/A   Partly Cloudy